Torna al catalogo

FENGYUN 1C DEB

AttivoPO
NORAD 31914·DEBRIS·🇨🇳 China

Lanciato May 10, 1999 da Taiyuan Satellite Launch Center

Loading…

Prossimi Passaggi (prossime 24 ore)

TLE

AggiornatoSource: Space-Track

Epoca: Sep 13, 2026, 15:42 UTC

1 31914U 99025CLR 26256.65434051  .00000526  00000-0  10786-3 0  9990
2 31914  98.9876 146.5843 0180531 316.8109  41.9045 14.56114895724734

Traccia FENGYUN 1C DEB in tempo reale con AllMySat

Download on the App Store